Lexington, NE

8:22 PM CST on November 19, 2019 (GMT -0600)
Kelly

Weather History for KLXN - June, 2019

Change the Weather History Date:

Saturday, June 1, 2019

  Actual Average Record
Temperature  
Mean Temperature 61 °F -  
Max Temperature 72 °F 74 °F 95 °F (2002)
Min Temperature 50 °F 49 °F 44 °F (2001)
Degree Days  
Heating Degree Days 4    
Growing Degree Days 11 (Base 50)    
Moisture  
Dew Point 55 °F    
Average Humidity 76    
Maximum Humidity 97    
Minimum Humidity 55    
Precipitation  
Precipitation 0.00 in - - ()
Sea Level Pressure  
Sea Level Pressure 30.00 in    
Wind  
Wind Speed 8 mph (NNE)    
Max Wind Speed 17 mph    
Max Gust Speed 23 mph    
Visibility 10 miles    
Events      
Averages and records for this station are not official NWS values.
T = Trace of Precipitation, MM = Missing Value Source: NWS Daily Summary

Daily Weather History Graph

Daily Weather History Graph

Search for Another Location

Airport or City:

Astronomy

Jun. 01, 2019 Rise Set
Actual Time 6:10 AM CDT 9:04 PM CDT
Civil Twilight 5:37 AM CDT 9:37 PM CDT
Nautical Twilight 4:56 AM CDT 10:18 PM CDT
Astronomical Twilight 4:08 AM CDT 11:06 PM CDT
Moon 5:16 AM CDT (6/1) 7:18 PM CDT (6/1)
Length of Visible Light 15h 59m
Length of Day
14h 54m
Waning Crescent, 4% of the Moon is Illuminated
Jun 1
Waning Crescent
Jun 3
New
Jun 10
First Quarter
Jun 17
Full
Jun 25
Last Quarter

Hourly Weather History & Observations

Time (CDT) Temp. Dew Point Humidity Pressure Visibility Wind Dir Wind Speed Gust Speed Precip Events Conditions
12:15 AM 62.6 °F 58.5 °F 86% 29.92 in 10.0 mi South 9.2 mph - N/A   Clear
12:35 AM 62.1 °F 58.5 °F 88% 29.92 in 10.0 mi South 10.4 mph - N/A   Clear
12:55 AM 61.2 °F 58.1 °F 90% 29.92 in 10.0 mi South 4.6 mph - N/A   Clear
1:15 AM 61.3 °F 57.6 °F 87% 29.95 in 10.0 mi NW 12.7 mph 21.9 mph N/A   Clear
1:35 AM 62.6 °F 57.2 °F 82% 29.94 in 10.0 mi North 8.1 mph - N/A   Clear
1:55 AM 59.9 °F 56.8 °F 90% 29.94 in 10.0 mi Calm Calm - N/A   Clear
2:15 AM 57.7 °F 56.1 °F 94% 29.93 in 10.0 mi Calm Calm - N/A   Clear
2:35 AM 57.9 °F 56.1 °F 94% 29.93 in 10.0 mi Calm Calm - N/A   Clear
2:55 AM 56.5 °F 54.9 °F 94% 29.93 in 10.0 mi Calm Calm - N/A   Clear
3:15 AM 55.8 °F 55.0 °F 97% 29.93 in 7.0 mi NNW 9.2 mph - N/A   Clear
3:35 AM 56.3 °F 55.2 °F 96% 29.94 in 7.0 mi NNW 5.8 mph - N/A   Clear
3:55 AM 55.0 °F 54.1 °F 97% 29.94 in 7.0 mi NW 3.5 mph - N/A   Clear
4:15 AM 54.1 °F 52.5 °F 94% 29.94 in 10.0 mi NW 6.9 mph - N/A   Clear
4:35 AM 54.5 °F 52.2 °F 92% 29.95 in 10.0 mi WNW 5.8 mph - N/A   Clear
4:55 AM 52.7 °F 51.1 °F 94% 29.95 in 10.0 mi WNW 6.9 mph - N/A   Clear
5:15 AM 52.7 °F 50.9 °F 94% 29.95 in 10.0 mi WNW 4.6 mph - N/A   Clear
5:35 AM 52.0 °F 50.7 °F 95% 29.95 in 10.0 mi WNW 5.8 mph - N/A   Clear
5:55 AM 51.3 °F 50.4 °F 97% 29.96 in 10.0 mi WNW 6.9 mph - N/A   Clear
6:15 AM 50.9 °F 50.2 °F 97% 29.96 in 10.0 mi WNW 5.8 mph - N/A   Clear
6:35 AM 51.8 °F 50.9 °F 97% 29.97 in 10.0 mi NW 6.9 mph - N/A   Clear
6:55 AM 52.7 °F 51.4 °F 95% 29.98 in 10.0 mi WNW 6.9 mph - N/A   Clear
7:15 AM 54.9 °F 52.9 °F 93% 29.99 in 10.0 mi NW 6.9 mph - N/A   Clear
7:35 AM 56.8 °F 54.0 °F 90% 29.99 in 10.0 mi NNW 10.4 mph - N/A   Clear
7:55 AM 58.1 °F 54.7 °F 88% 30.00 in 10.0 mi NNW 12.7 mph - N/A   Clear
8:15 AM 59.0 °F 54.9 °F 86% 30.00 in 10.0 mi NNW 10.4 mph - N/A   Clear
8:35 AM 60.3 °F 55.2 °F 83% 30.00 in 10.0 mi North 10.4 mph - N/A   Clear
8:55 AM 61.7 °F 55.6 °F 80% 30.01 in 10.0 mi North 11.5 mph - N/A   Clear
9:15 AM 63.0 °F 56.1 °F 78% 30.02 in 10.0 mi North 11.5 mph - N/A   Clear
9:35 AM 64.6 °F 56.1 °F 74% 30.02 in 10.0 mi North 17.3 mph - N/A   Clear
9:55 AM 65.7 °F 56.5 °F 72% 30.02 in 10.0 mi North 12.7 mph - N/A   Clear
10:15 AM 66.2 °F 55.4 °F 68% 30.03 in 10.0 mi North 17.3 mph 23.0 mph N/A   Clear
10:35 AM 67.1 °F 54.9 °F 65% 30.04 in 10.0 mi North 16.1 mph - N/A   Clear
10:55 AM 67.3 °F 55.2 °F 65% 30.04 in 10.0 mi North 15.0 mph - N/A   Clear
11:15 AM 67.5 °F 54.7 °F 64% 30.04 in 10.0 mi North 17.3 mph - N/A   Clear
11:35 AM 68.4 °F 55.6 °F 64% 30.04 in 10.0 mi North 17.3 mph 20.7 mph N/A   Clear
11:55 AM 68.7 °F 56.1 °F 64% 30.05 in 10.0 mi North 15.0 mph 19.6 mph N/A   Clear
12:15 PM 69.1 °F 56.3 °F 64% 30.04 in 10.0 mi NNE 12.7 mph - N/A   Clear
12:35 PM 69.4 °F 55.6 °F 61% 30.05 in 10.0 mi North 11.5 mph 17.3 mph N/A   Clear
12:55 PM 70.0 °F 56.1 °F 61% 30.04 in 10.0 mi North 9.2 mph - N/A   Clear
1:15 PM 70.5 °F 56.1 °F 60% 30.04 in 10.0 mi North 10.4 mph 16.1 mph N/A   Clear
1:35 PM 70.5 °F 56.7 °F 61% 30.04 in 10.0 mi NE 9.2 mph - N/A   Clear
1:55 PM 71.2 °F 56.8 °F 60% 30.04 in 10.0 mi North 8.1 mph - N/A   Clear
2:15 PM 71.1 °F 55.4 °F 58% 30.04 in 10.0 mi NNE 6.9 mph - N/A   Clear
2:35 PM 71.6 °F 57.2 °F 60% 30.03 in 10.0 mi NNE 9.2 mph - N/A   Clear
2:55 PM 71.6 °F 55.8 °F 57% 30.03 in 10.0 mi NNW 8.1 mph - N/A   Clear
3:15 PM 71.8 °F 56.5 °F 58% 30.03 in 10.0 mi NNE 3.5 mph - N/A   Clear
3:35 PM 72.5 °F 57.4 °F 59% 30.02 in 10.0 mi NE 6.9 mph - N/A   Clear
3:55 PM 72.3 °F 55.6 °F 56% 30.02 in 10.0 mi NE 10.4 mph - N/A   Clear
4:15 PM 72.5 °F 55.8 °F 56% 30.02 in 10.0 mi NE 3.5 mph - N/A   Clear
4:55 PM 72.7 °F 55.8 °F 55% 30.00 in 10.0 mi NNE 9.2 mph - N/A   Clear
5:15 PM 72.5 °F 55.6 °F 55% 29.99 in 10.0 mi NE 4.6 mph - N/A   Clear
5:35 PM 72.7 °F 55.6 °F 55% 29.99 in 10.0 mi NE 5.8 mph - N/A   Clear
5:55 PM 72.1 °F 55.6 °F 56% 29.99 in 10.0 mi North 4.6 mph - N/A   Clear
6:15 PM 72.0 °F 55.2 °F 55% 29.99 in 10.0 mi NE 3.5 mph - N/A   Clear
6:35 PM 71.6 °F 55.2 °F 56% 29.99 in 10.0 mi ENE 5.8 mph - N/A   Clear
6:55 PM 71.6 °F 54.7 °F 55% 29.99 in 10.0 mi NE 5.8 mph - N/A   Clear
7:15 PM 70.5 °F 55.4 °F 59% 29.99 in 10.0 mi NE 5.8 mph - N/A   Clear
7:35 PM 70.2 °F 55.8 °F 60% 30.00 in 10.0 mi ENE 4.6 mph - N/A   Clear
7:55 PM 67.5 °F 56.5 °F 68% 30.00 in 10.0 mi NE 4.6 mph - N/A   Clear
8:15 PM 65.7 °F 55.2 °F 69% 30.00 in 10.0 mi NE 6.9 mph - N/A   Clear
8:35 PM 64.4 °F 56.1 °F 74% 30.00 in 10.0 mi NE 4.6 mph - N/A   Clear
8:55 PM 63.1 °F 54.9 °F 74% 30.00 in 10.0 mi NE 6.9 mph - N/A   Clear
9:15 PM 62.2 °F 54.0 °F 74% 29.99 in 10.0 mi NE 9.2 mph - N/A   Clear
9:35 PM 60.8 °F 54.7 °F 80% 30.01 in 10.0 mi ENE 5.8 mph - N/A   Clear
9:55 PM 59.9 °F 54.7 °F 83% 30.03 in 10.0 mi East 5.8 mph - N/A   Clear
10:15 PM 59.0 °F 54.5 °F 85% 30.04 in 10.0 mi ENE 5.8 mph - N/A   Clear
10:35 PM 59.0 °F 54.7 °F 86% 30.05 in 10.0 mi ENE 6.9 mph - N/A   Clear
10:55 PM 58.5 °F 54.0 °F 85% 30.05 in 10.0 mi East 6.9 mph - N/A   Clear
11:15 PM 58.3 °F 53.1 °F 83% 30.04 in 10.0 mi East 5.8 mph - N/A   Clear
11:35 PM 58.6 °F 52.7 °F 81% 30.05 in 10.0 mi ESE 5.8 mph - N/A   Clear
11:55 PM 58.5 °F 52.7 °F 81% 30.04 in 10.0 mi East 6.9 mph - N/A   Clear